Home   Weather   Bridlington   Past weeks

Flag for United Kingdom Past Weather in Bridlington, England, United Kingdom — Yesterday and Last 2 Weeks

Now
63 °F

Mild.


Feels Like: 63 °F
Forecast: 60 / 69 °F
Wind: 10 mph from South

Location: Bridlington Mrsc

Current Time: Aug 16, 2017 at 10:33:42 pm

Latest Report: Aug 16, 2017 at 9:00 pm


Visibility: N/A

Pressure: 29.90 "Hg

Humidity: 75%

Dew Point: 55 °F

Location of BridlingtonLocation

Past Weather in Bridlington — Graph

°F

Bridlington Temperature Yesterday

Maximum temperature yesterday: 72 °F (at 2:00 pm)
Minimum temperature yesterday: 56 °F (at 11:00 pm)
Average temperature yesterday: 64 °F

High & Low Weather Summary for the Past Weeks

 TemperatureHumidityPressure
High72 °F (Aug 15, 2:00 pm)99% (Aug 2, 11:00 pm)30.26 "Hg (Aug 2, 11:00 pm)
Low48 °F (Aug 6, 5:00 am)45% (Aug 6, 3:00 pm)29.47 "Hg (Aug 3, 8:00 am)
Average60 °F80%29.93 "Hg
* Reported Aug 1 8:00 pm — Aug 16 8:00 pm, Bridlington. Weather by CustomWeather, © 2017

Note: Actual official high and low records may vary slightly from our data, if they occured in-between our weather recording intervals... More about our weather records

Advertising

Bridlington Weather History for the Previous 24 Hours

Scroll right to see more
 ConditionsComfort  
Time TempWeatherWind HumidityBarometerVisibility
8:00 pm
Wed, Aug 16
65 °FMild.15 mph65%29.91 "HgN/A
7:00 pm68 °FMild.18 mph56%29.92 "HgN/A
6:00 pm69 °FMild.17 mph51%29.93 "HgN/A
5:00 pm69 °FMild.18 mph49%29.95 "HgN/A
4:00 pm69 °FMild.18 mph49%29.98 "HgN/A
3:00 pm67 °FMild.18 mph52%29.99 "HgN/A
2:00 pm68 °FMild.23 mph52%30.00 "HgN/A
1:00 pm67 °FMild.15 mph62%30.01 "HgN/A
12:00 pm65 °FMild.14 mph71%30.04 "HgN/A
11:00 am62 °FCool.14 mph79%30.06 "HgN/A
10:00 am60 °FCool.14 mph82%30.06 "HgN/A
9:00 am60 °FCool.6 mph85%30.07 "HgN/A
8:00 am54 °FCool.5 mph91%30.07 "HgN/A
7:00 am51 °FCool.3 mph95%30.07 "HgN/A
6:00 am50 °FCool.2 mph95%30.06 "HgN/A
5:00 am49 °FCool.1 mph96%30.06 "HgN/A
4:00 am49 °FCool.1 mph95%30.06 "HgN/A
3:00 am51 °FCool.6 mph91%30.06 "HgN/A
2:00 am52 °FCool.9 mph88%30.04 "HgN/A
1:00 am53 °FCool.6 mph85%30.05 "HgN/A
12:00 am54 °FCool.7 mph81%30.05 "HgN/A
11:00 pm
Tue, Aug 15
56 °FCool.5 mph76%30.04 "HgN/A
10:00 pm58 °FCool.7 mph69%30.02 "HgN/A
Weather by CustomWeather, © 2017

See weather overviewHow to use our weather pages